Location: Home
(42.5358°N, 72.7383°W)
Time: 08:55:13
(UTC-05:00)

Vanguard 2 - Pass Details

Date: 29 November 2021
Orbit: 553 x 2936 km, 32.9° (Epoch: 21 January)

Event Time Altitude Azimuth Distance (km) Brightness Sun altitude
Rises 17:53:24 0° 265° (W) 4,135 13.0 -16.9°
Reaches altitude 10° 17:55:56 10° 259° (WSW) 3,436 12.2 -17.4°
Maximum altitude 18:04:28 44° 191° (S) 2,475 10.2 -18.9°
Drops below altitude 10° 18:17:46 10° 127° (SE) 5,274 11.4 -21.3°
Enters shadow 18:19:48 - 124° (SE) 5,791 11.6 -21.7°
Sets 18:22:45 0° 122° (ESE) 6,531 - -22.2°
